Change the Weather History Date:

Monday, October 22, 2012

  Actual Average Record
Temperature  
Mean Temperature 56 °F -  
Max Temperature 70 °F 71 °F 82 °F (2001)
Min Temperature 41 °F 51 °F 34 °F (1972)
Degree Days  
Heating Degree Days 10    
Growing Degree Days 6 (Base 50)    
Moisture  
Dew Point 42 °F    
Average Humidity 72    
Maximum Humidity 93    
Minimum Humidity 33    
Precipitation  
Precipitation 0.00 in - - ()
Sea Level Pressure  
Sea Level Pressure 30.17 in    
Wind  
Wind Speed 1 mph (NNW)    
Max Wind Speed 8 mph    
Max Gust Speed 16 mph    
Visibility 8 miles    
Events Fog    
Averages and records for this station are not official NWS values.
T = Trace of Precipitation, MM = Missing Value Source: NWS Daily Summary

Daily Weather History Graph

Daily Weather History Graph

Search for Another Location

Airport or City:

Trip Planner

Search our weather history database for the weather conditions in past years. The results will help you decide how hot, cold, wet, or windy it might be!

Date:

Astronomy

Oct. 22, 2012 Rise Set
Actual Time 7:20 AM EDT 6:19 PM EDT
Civil Twilight 6:54 AM EDT 6:45 PM EDT
Nautical Twilight 6:23 AM EDT 7:16 PM EDT
Astronomical Twilight 5:53 AM EDT 7:46 PM EDT
Moon 2:17 PM EDT (10/22) 12:14 AM EDT (10/22)
Length of Visible Light 11h 51m
Length of Day
10h 58m
First Quarter, 56% of the Moon is Illuminated
Oct 22
First Quarter
Oct 29
Full
Nov 6
Last Quarter
Nov 13
New
Nov 20
First Quarter

Hourly Weather History & Observations

Time (EDT) Temp. Dew Point Humidity Pressure Visibility Wind Dir Wind Speed Gust Speed Precip Events Conditions
12:54 AM 46.0 °F 42.1 °F 86% 30.14 in 10.0 mi Calm Calm - N/A   Clear
1:54 AM 45.0 °F 41.0 °F 86% 30.14 in 9.0 mi Calm Calm - N/A   Clear
2:54 AM 44.1 °F 41.0 °F 89% 30.15 in 6.0 mi Calm Calm - N/A   Clear
3:54 AM 45.0 °F 41.0 °F 86% 30.15 in 10.0 mi Calm Calm - N/A   Clear
4:54 AM 45.0 °F 41.0 °F 86% 30.16 in 9.0 mi Calm Calm - N/A   Clear
5:54 AM 43.0 °F 39.9 °F 89% 30.17 in 5.0 mi Calm Calm - N/A   Clear
6:18 AM 44.6 °F 39.2 °F 81% 30.18 in 1.8 mi Calm Calm - N/A   Clear
6:25 AM 42.8 °F 39.2 °F 87% 30.18 in 0.5 mi Calm Calm - N/A Fog Fog
6:37 AM 44.6 °F 41.0 °F 87% 30.18 in 1.0 mi Calm Calm - N/A   Clear
6:51 AM 42.8 °F 41.0 °F 93% 30.19 in 3.0 mi Calm Calm - N/A   Clear
6:54 AM 43.0 °F 41.0 °F 93% 30.19 in 8.0 mi Calm Calm - N/A   Clear
7:11 AM 41.0 °F 39.2 °F 93% 30.19 in 1.8 mi Calm Calm - N/A   Clear
7:21 AM 42.8 °F 39.2 °F 87% 30.19 in 4.0 mi Calm Calm - N/A   Clear
7:54 AM 44.1 °F 41.0 °F 89% 30.20 in 9.0 mi Calm Calm - N/A   Clear
8:54 AM 54.0 °F 48.9 °F 83% 30.22 in 10.0 mi Calm Calm - N/A   Clear
9:54 AM 63.0 °F 45.0 °F 52% 30.22 in 10.0 mi NNW 5.8 mph - N/A   Clear
10:54 AM 64.9 °F 42.1 °F 43% 30.22 in 10.0 mi NNE 6.9 mph - N/A   Clear
11:54 AM 66.9 °F 41.0 °F 39% 30.22 in 10.0 mi NW 6.9 mph - N/A   Clear
12:54 PM 68.0 °F 42.1 °F 39% 30.19 in 10.0 mi NNE 6.9 mph - N/A   Clear
1:54 PM 70.0 °F 39.9 °F 33% 30.17 in 10.0 mi NW 8.1 mph 16.1 mph N/A   Clear
2:54 PM 70.0 °F 41.0 °F 35% 30.16 in 10.0 mi Variable 4.6 mph - N/A   Clear
3:54 PM 70.0 °F 42.1 °F 36% 30.15 in 10.0 mi NW 8.1 mph - N/A   Clear
4:54 PM 69.1 °F 41.0 °F 36% 30.14 in 10.0 mi NW 5.8 mph - N/A   Clear
5:54 PM 66.0 °F 41.0 °F 40% 30.14 in 10.0 mi WNW 4.6 mph - N/A   Clear
6:54 PM 57.9 °F 46.9 °F 67% 30.14 in 10.0 mi Calm Calm - N/A   Clear
7:54 PM 53.1 °F 46.0 °F 77% 30.16 in 10.0 mi Calm Calm - N/A   Clear
8:54 PM 51.1 °F 46.0 °F 83% 30.17 in 10.0 mi Calm Calm - N/A   Clear
9:54 PM 50.0 °F 46.0 °F 86% 30.17 in 10.0 mi Calm Calm - N/A   Clear
10:54 PM 50.0 °F 46.0 °F 86% 30.17 in 10.0 mi Calm Calm - N/A   Clear
11:54 PM 50.0 °F 46.0 °F 86% 30.16 in 6.0 mi Calm Calm - N/A   Clear